This is the latest recevied weather packets stored in our database for station/object F8KHU-13. If no packets are shown the sender has not sent any weather packets the latest 1 day(s).
| Time | Temp. | Humidity | Pressure | Rain* | Wind** | Luminosity | Snow |
|---|---|---|---|---|---|---|---|
| 1777975815 | 13.33° C | 33% | 1011.7 hPa | 0 mm | 0 m/s | 0 W/m² | - |
| 1777975795 | 13.33° C | 33% | 1011.7 hPa | 0 mm | 0 m/s | 0 W/m² | - |
| 1777974935 | 13.33° C | 33% | 1011.7 hPa | 0 mm | 1.34 m/s, 135° | 0 W/m² | - |
| 1777974915 | 13.33° C | 33% | 1011.6 hPa | 0 mm | 0.45 m/s, 135° | 0 W/m² | - |
| 1777974895 | 13.33° C | 33% | 1011.6 hPa | 0 mm | 1.34 m/s, 136° | 0 W/m² | - |
| 1777974035 | 12.78° C | 33% | 1011.5 hPa | 0 mm | 0 m/s | 0 W/m² | - |
| 1777974015 | 12.78° C | 33% | 1011.6 hPa | 0 mm | 0 m/s | 0 W/m² | - |
| 1777973995 | 12.78° C | 33% | 1011.6 hPa | 0 mm | 0.89 m/s, 145° | 0 W/m² | - |
| 1777973136 | 13.33° C | 33% | 1011.6 hPa | 0 mm | 0.45 m/s, 142° | 0 W/m² | - |
| 1777973115 | 13.33° C | 33% | 1011.6 hPa | 0 mm | 0.89 m/s, 142° | 0 W/m² | - |
| 1777973095 | 13.33° C | 33% | 1011.7 hPa | 0 mm | 1.79 m/s, 143° | 0 W/m² | - |
| 1777972236 | 12.78° C | 34% | 1011.6 hPa | 0 mm | 0 m/s | 0 W/m² | - |
| 1777972216 | 12.78° C | 33% | 1011.6 hPa | 0 mm | 0 m/s | 0 W/m² | - |
| 1777972196 | 12.78° C | 33% | 1011.7 hPa | 0 mm | 0 m/s | 0 W/m² | - |
| 1777971336 | 13.33° C | 33% | 1011.8 hPa | 0 mm | 2.24 m/s, 145° | 0 W/m² | - |
| 1777971316 | 13.33° C | 33% | 1011.7 hPa | 0 mm | 0.45 m/s, 144° | 0 W/m² | - |
| 1777971296 | 13.33° C | 33% | 1011.7 hPa | 0 mm | 1.79 m/s, 144° | 0 W/m² | - |
| 1777970436 | 12.78° C | 33% | 1011.6 hPa | 0 mm | 0 m/s | 0 W/m² | - |
| 1777970416 | 12.78° C | 33% | 1011.6 hPa | 0 mm | 0.45 m/s, 132° | 0 W/m² | - |
| 1777970396 | 12.78° C | 34% | 1011.6 hPa | 0 mm | 0.45 m/s, 133° | 0 W/m² | - |
| 1777969536 | 12.78° C | 34% | 1011.6 hPa | 0 mm | 0.45 m/s, 152° | 0 W/m² | - |
| 1777969516 | 12.78° C | 34% | 1011.6 hPa | 0 mm | 0 m/s | 0 W/m² | - |
| 1777969496 | 12.78° C | 34% | 1011.6 hPa | 0 mm | 1.34 m/s, 151° | 0 W/m² | - |
| 1777968636 | 12.78° C | 34% | 1011.7 hPa | 0 mm | 0.45 m/s, 153° | 0 W/m² | - |
| 1777968616 | 12.78° C | 35% | 1011.6 hPa | 0 mm | 1.34 m/s, 154° | 0 W/m² | - |
* Rain latest hour (hover to see other rain measurements)
** Current wind speed in m/s (hover to see current wind gust speed)